Location: Newark
(42.7133°N, 87.7910°W)
Time: 23:22:13
(UTC+00:00)

Transit 2A Rocket - All Passes

Search period start: 23 October 2019 00:00
Search period end: 02 November 2019 00:00
Orbit: 594 x 909 km, 66.7° (Epoch: 23 October)

Date Brightness Start Highest point End Pass type
(mag) Time Alt. Az. Time Alt. Az. Time Alt. Az.
23 Oct - 09:43:05 10° SSW 09:48:10 66° ESE 09:52:51 10° NE visible
23 Oct - 11:27:36 10° W 11:31:05 19° NW 11:34:25 10° N visible
23 Oct - 18:25:52 10° NNW 18:30:06 55° ENE 18:34:25 10° SE daylight
23 Oct - 20:09:46 10° WNW 20:12:09 15° WSW 20:14:34 10° SW daylight
24 Oct - 09:01:03 10° S 09:05:44 37° ESE 09:10:06 10° NE visible
24 Oct - 10:43:57 10° WSW 10:48:19 30° NW 10:52:25 10° NNE visible
24 Oct - 17:43:36 10° NNW 17:47:28 31° NE 17:51:22 10° ESE daylight
24 Oct - 19:26:14 10° NW 19:29:53 27° WSW 19:33:36 10° S daylight
25 Oct - 08:19:37 10° SSE 08:23:23 21° ESE 08:26:57 10° ENE visible
25 Oct - 10:00:46 10° SW 10:05:40 49° NW 10:10:12 10° NNE visible
25 Oct - 17:01:35 10° N 17:04:42 19° NE 17:07:50 10° E daylight
25 Oct - 18:43:19 10° NW 18:47:31 51° WSW 18:51:47 10° SSE daylight
26 Oct - 07:39:32 10° SE 07:41:07 11° ESE 07:42:40 10° E visible
26 Oct - 09:18:00 10° SSW 09:23:06 86° WNW 09:27:47 10° NNE visible
26 Oct - 11:03:41 10° WNW 11:06:15 14° NW 11:08:44 10° N visible
26 Oct - 16:20:05 10° NNE 16:21:49 12° NE 16:23:32 10° ENE daylight
26 Oct - 18:00:43 10° NNW 18:05:03 84° ENE 18:09:28 10° SSE daylight
27 Oct - 08:35:40 10° SSW 08:40:37 53° ESE 08:45:12 10° NE visible
27 Oct - 10:19:37 10° W 10:23:24 22° NW 10:27:00 10° N visible
27 Oct - 17:18:20 10° NNW 17:22:28 45° NE 17:26:42 10° SE daylight
27 Oct - 19:01:41 10° WNW 19:04:40 18° WSW 19:07:41 10° SSW daylight
28 Oct - 07:53:49 10° S 07:58:13 30° ESE 08:02:19 10° NE visible
28 Oct - 09:36:08 10° WSW 09:40:40 35° NW 09:44:55 10° NNE visible
28 Oct - 16:36:09 10° N 16:39:48 26° NE 16:43:30 10° ESE daylight
28 Oct - 18:18:27 10° NW 18:22:20 33° WSW 18:26:21 10° S daylight
29 Oct - 07:12:41 10° SSE 07:15:53 17° ESE 07:18:57 10° ENE night (unlit)
29 Oct - 08:53:05 10° SW 08:58:03 60° WNW 09:02:38 10° NNE visible
29 Oct - 10:40:36 10° NW 10:41:29 10° NW 10:42:22 10° NNW visible
29 Oct - 15:54:14 10° N 15:57:00 16° NE 15:59:46 10° E daylight
29 Oct - 17:35:40 10° NW 17:39:56 65° WSW 17:44:20 10° SSE daylight
30 Oct - 08:10:28 10° SSW 08:15:32 79° ESE 08:20:11 10° NNE visible
30 Oct - 09:55:32 10° W 09:58:32 16° NW 10:01:27 10° N visible
30 Oct - 15:13:24 10° NNE 15:14:03 10° NE 15:14:44 10° NE daylight
30 Oct - 16:53:08 10° NNW 16:57:26 67° ENE 17:01:51 10° SE daylight
30 Oct - 18:37:45 10° W 18:39:24 12° WSW 18:41:04 10° SW daylight
31 Oct - 07:28:17 10° S 07:33:04 43° ESE 07:37:29 10° NE night (unlit)
31 Oct - 09:11:41 10° WSW 09:15:44 25° NW 09:19:34 10° N visible
31 Oct - 16:10:49 10° NNW 16:14:50 37° NE 16:18:56 10° ESE daylight
31 Oct - 17:53:45 10° WNW 17:57:09 23° WSW 18:00:37 10° SSW daylight
01 Nov - 06:46:39 10° SSE 06:50:41 24° ESE 06:54:29 10° ENE night (unlit)
01 Nov - 08:28:22 10° SW 08:33:02 41° NW 08:37:24 10° NNE visible
01 Nov - 15:28:42 10° N 15:32:07 22° NE 15:35:34 10° E daylight
01 Nov - 17:10:43 10° NW 17:14:48 42° WSW 17:19:00 10° S daylight
